Terug naar catalogus

STARLINK-5843

ActiefCommunicatieVLEO
NORAD 57072·PAYLOAD·🇺🇸 United States

Gelanceerd Jun 22, 2023 vanaf Vandenberg Space Force Base

Loading…

Volgende Passages (komende 24 uur)

TLE

VersSource: CelesTrak SupGP

Epoch: Sep 14, 2026, 20:56 UTC

1 57072C 23088AA  26257.87270833 -.00001577  00000+0 -57145-4 0  2576
2 57072  43.0012 107.8970 0001001 259.6504  18.8182 15.27571080    13

Volg STARLINK-5843 in realtime met AllMySat

Download on the App Store